Satellite: CO-57
Catalog number: 27848
Epoch time:      09252.56803234
Element set:    0613
Inclination:      098.7172 deg
RA of node:       259.6115 deg
Eccentricity:    0.0009001
Arg of perigee:   266.6059 deg
Mean anomaly:     093.4093 deg
Mean motion:   14.20454601 rev/day
Decay rate:        1.3e-07 rev/day^2
Epoch rev:           32120
Checksum:              285

Satellite: AO-51
Catalog number: 28375
Epoch time:      09253.67033633
Element set:     482
Inclination:      098.0544 deg
RA of node:       258.3006 deg
Eccentricity:    0.0082849
Arg of perigee:   225.7289 deg
Mean anomaly:     133.7085 deg
Mean motion:   14.40651560 rev/day
Decay rate:        1.0e-08 rev/day^2
Epoch rev:           27326
Checksum:              307

Satellite: CO-56
Catalog number: 28941
Epoch time:      09253.80273645
Element set:     429
Inclination:      098.1328 deg
RA of node:       085.1475 deg
Eccentricity:    0.0057369
Arg of perigee:   165.9883 deg
Mean anomaly:     194.3037 deg
Mean motion:   15.96881241 rev/day
Decay rate:    1.14277e-03 rev/day^2
Epoch rev:           20085
Checksum:              351

Satellite: GENESAT1
Catalog number: 29655
Epoch time:      09253.67228215
Element set:     803
Inclination:      040.0238 deg
RA of node:       007.0205 deg
Eccentricity:    0.0002381
Arg of perigee:   038.0349 deg
Mean anomaly:     322.0636 deg
Mean motion:   15.67287107 rev/day
Decay rate:     1.0240e-04 rev/day^2
Epoch rev:           15588
Checksum:              270

Satellite: CP3
Catalog number: 31129
Epoch time:      09253.61356963
Element set:     185
Inclination:      097.9817 deg
RA of node:       302.5671 deg
Eccentricity:    0.0103088
Arg of perigee:   021.1705 deg
Mean anomaly:     339.3712 deg
Mean motion:   14.52160567 rev/day
Decay rate:        9.3e-07 rev/day^2
Epoch rev:           12728
Checksum:              299

Satellite: CO-65
Catalog number: 32785
Epoch time:      09253.15809303
Element set:     467
Inclination:      097.9382 deg
RA of node:       316.3902 deg
Eccentricity:    0.0016048
Arg of perigee:   113.3821 deg
Mean anomaly:     246.9087 deg
Mean motion:   14.81516225 rev/day
Decay rate:       3.31e-06 rev/day^2
Epoch rev:            7402
Checksum:              302

Satellite: KKS-1
Catalog number: 33493
Epoch time:      09253.92116088
Element set:     743
Inclination:      098.0640 deg
RA of node:       006.5363 deg
Eccentricity:    0.0019540
Arg of perigee:   327.8587 deg
Mean anomaly:     032.1412 deg
Mean motion:   14.80724263 rev/day
Decay rate:       1.25e-06 rev/day^2
Epoch rev:            3415
Checksum:              281

Satellite: SOHLA-1
Catalog number: 33496
Epoch time:      09253.91273903
Element set:     708
Inclination:      098.0438 deg
RA of node:       001.9091 deg
Eccentricity:    0.0007218
Arg of perigee:   020.4541 deg
Mean anomaly:     339.6931 deg
Mean motion:   14.69445032 rev/day
Decay rate:       -2.8e-07 rev/day^2
Epoch rev:            3386
Checksum:              294

/EX
SB KEPS @ AMSAT  $ORB09253.W
Orbital Elements  09253.WEATHER

HR AMSAT ORBITAL ELEMENTS FOR WEATHER SATELLITES
FROM WA5QGD FORT WORTH,TX September 10, 2009
Send Subscribe/unsubscribe to KEPS at 
http://www.amsat.org/mailman/listinfo/keps
BID: ORB09253.W
TO ALL RADIO AMATEURS BT

Satellite: NOAA-10
Catalog number: 16969
Epoch time:      09252.69493505
Element set:    0755
Inclination:      098.6876 deg
RA of node:       278.8681 deg
Eccentricity:    0.0011786
Arg of perigee:   314.1076 deg
Mean anomaly:     045.9153 deg
Mean motion:   14.27393394 rev/day
Decay rate:       -8.4e-07 rev/day^2
Epoch rev:           19556
Checksum:              359

Satellite: NOAA-11
Catalog number: 19531
Epoch time:      09252.85433658
Element set:    0774
Inclination:      098.7830 deg
RA of node:       341.4945 deg
Eccentricity:    0.0010983
Arg of perigee:   225.2476 deg
Mean anomaly:     134.7786 deg
Mean motion:   14.14903289 rev/day
Decay rate:        9.0e-07 rev/day^2
Epoch rev:           08149
Checksum:              332

Satellite: NOAA-12
Catalog number: 21263
Epoch time:      09252.96244436
Element set:    0282
Inclination:      098.7747 deg
RA of node:       261.0708 deg
Eccentricity:    0.0011337
Arg of perigee:   260.7757 deg
Mean anomaly:     099.2140 deg
Mean motion:   14.25592393 rev/day
Decay rate:        3.7e-07 rev/day^2
Epoch rev:           95247
Checksum:              316

Satellite: MET-3/5
Catalog number: 21655
Epoch time:      09252.93071952
Element set:    0697
Inclination:      082.5554 deg
RA of node:       146.6464 deg
Eccentricity:    0.0013633
Arg of perigee:   335.3254 deg
Mean anomaly:     024.7214 deg
Mean motion:   13.17020353 rev/day
Decay rate:        5.1e-07 rev/day^2
Epoch rev:           86878
Checksum:              303

Satellite: MET-2/21
Catalog number: 22782
Epoch time:      09252.93120676
Element set:    0562
Inclination:      082.5459 deg
RA of node:       114.7987 deg
Eccentricity:    0.0023683
Arg of perigee:   107.6650 deg
Mean anomaly:     252.7095 deg
Mean motion:   13.83638210 rev/day
Decay rate:       -2.0e-07 rev/day^2
Epoch rev:           80932
Checksum:              309

